Temp
23 23 23 23 23 24 24 24 24 24 24 24 24 24 24 24 25 25 25 25 24 24 24 24 24 24 24 24 24 25 25 25 24 24 24 24 24 24 24 24 24 24 24 25 25 25 25 25 25 25 25 25 25 25 25 25 25 25 25 26 26 26 26 25 24 24 26 26 26 26 26 26 26 26 26 26 26 26 26 26 26 26 26 26 26
23 23 23 23 23 24 24 24 24 24 24 24 24 24 24 24 24 24 24 24 24 24 24 24 24 24 24 24 24 25 25 25 24 24 24 24 24 24 24 24 24 24 24 24 25 25 25 25 25 25 25 25 25 25 25 25 25 25 26 26 26 26 26 26 25 24 25 26 26 26 26 26 26 26 26 26 26 26 26 26 26 26 26 26 26
23 23 23 23 23 23 23 24 24 24 24 24 24 24 24 24 24 24 24 24 24 24 24 24 24 24 24 24 25 25 25 25 24 24 24 24 24 24 24 24 24 24 24 24 25 25 25 25 25 25 25 25 25 25 25 25 25 25 26 26 26 26 26 26 25 25 25 26 26 26 26 26 26 26 26 26 26 26 26 26 26 26 26 26 26
23 23 23 23 23 23 23 23 23 24 24 24 24 24 24 24 24 24 24 24 24 24 24 24 24 24 24 24 25 25 25 25 24 24 24 24 24 24 24 24 24 24 24 24 25 25 25 25 25 25 25 25 25 25 25 25 25 25 26 26 26 26 26 26 25 25 25 25 26 26 26 25 25 25 25 26 26 26 26 26 26 26 26 26 25
23 23 23 23 23 23 23 23 23 24 24 24 24 24 24 24 24 24 24 24 24 24 24 24 24 24 24 24 24 24 25 24 24 24 24 24 24 24 24 24 24 24 24 24 24 24 25 25 25 25 25 25 25 25 25 25 25 25 26 26 26 26 26 26 25 25 25 25 25 25 25 25 25 25 25 25 25 26 26 26 26 26 26 26 25
23 23 23 23 23 23 23 23 23 24 24 24 24 24 24 24 24 24 24 24 24 24 24 24 24 24 24 24 24 24 24 24 24 24 24 24 24 24 24 24 24 24 24 24 24 24 24 25 25 25 25 25 25 25 25 25 25 26 26 26 26 26 26 26 26 25 25 25 25 25 25 25 25 25 25 24 24 25 25 25 26 25 25 25 25
22 22 22 23 23 23 23 23 23 24 24 24 24 24 24 24 24 24 24 24 25 25 25 24 24 24 24 24 24 24 24 24 24 24 24 24 24 24 24 24 24 24 24 24 24 24 24 24 25 25 25 25 25 25 25 25 26 26 26 26 26 26 26 26 26 26 25 25 25 25 25 25 25 25 24 24 24 24 24 24 25 25 25 24 24
22 22 22 22 23 23 24 24 24 24 24 24 24 24 24 24 24 24 24 24 25 25 25 25 25 25 25 24 24 24 24 24 24 24 24 24 24 25 24 24 24 24 24 25 25 25 25 25 25 25 25 25 24 25 25 25 26 26 26 26 26 26 26 26 26 26 26 25 25 25 25 25 25 24 24 24 24 23 23 22 23 23 24 23 23
23 22 22 22 23 23 24 24 24 24 24 24 24 24 24 24 24 24 24 25 25 25 25 25 25 25 25 25 25 24 24 24 24 24 25 24 25 25 24 24 25 24 24 25 25 25 25 25 25 25 25 24 24 24 25 25 26 26 26 26 26 26 26 26 26 26 25 25 25 25 25 25 24 24 23 23 23 22 23 22 22 22 22 23 23
23 23 22 22 22 23 23 24 24 24 24 24 24 24 24 24 24 24 24 25 25 25 25 25 25 25 25 25 25 25 24 24 24 24 24 25 25 25 24 24 24 24 24 24 24 25 25 25 25 25 25 24 24 24 25 25 25 25 25 26 26 26 25 25 25 25 25 25 25 25 24 24 24 23 22 22 22 22 22 22 22 22 22 22 22
23 23 23 23 22 22 23 23 24 24 24 24 24 24 24 24 24 24 24 25 25 25 25 25 25 25 25 25 25 25 24 24 24 24 24 24 25 25 24 24 24 24 24 24 24 24 25 25 25 25 24 24 24 24 24 24 25 25 25 25 25 25 25 25 25 25 24 24 24 24 23 23 23 22 22 22 22 22 22 21 21 21 21 21 21
23 23 23 23 23 22 23 23 23 24 24 24 24 24 24 24 24 24 25 25 25 25 25 25 25 25 25 25 24 24 24 24 24 24 24 24 25 25 23 23 24 24 23 24 24 24 24 24 25 25 24 24 24 24 24 24 24 25 25 25 24 24 24 24 24 24 24 24 23 23 22 22 22 21 21 22 22 22 21 21 21 20 20 20 20
23 23 23 23 23 22 22 23 23 24 24 24 24 24 24 24 24 24 25 25 25 25 25 25 25 25 25 24 24 24 24 24 24 24 24 24 25 25 23 22 23 24 24 24 24 24 24 24 25 25 25 24 24 24 24 24 24 24 24 24 24 23 24 24 24 24 23 23 23 22 22 21 21 21 21 21 21 21 21 21 20 20 20 20 20
22 22 22 22 23 22 22 22 22 23 23 24 24 24 24 24 24 24 25 24 25 25 25 25 24 24 24 24 24 24 24 24 24 24 24 24 24 25 24 22 22 23 23 24 24 24 24 24 25 25 25 24 24 24 24 24 24 24 23 23 23 23 23 23 23 23 23 22 22 21 21 21 20 20 20 20 20 20 21 20 20 19 19 20 20
21 21 21 21 21 22 23 22 21 21 22 23 23 23 23 23 23 23 24 24 24 24 23 23 23 23 24 24 24 24 24 24 24 24 24 24 24 24 24 23 23 22 23 23 23 24 24 24 25 25 24 24 24 24 24 24 24 23 23 22 22 22 22 22 22 22 22 22 21 21 20 20 20 20 20 20 20 20 20 20 19 19 20 20 19
21 21 21 21 21 21 21 21 20 20 21 22 23 23 23 23 23 22 22 23 24 24 23 23 22 22 23 23 23 23 23 23 23 23 23 23 23 23 23 23 23 23 23 23 23 23 24 24 24 24 24 23 23 23 23 23 23 22 22 22 21 21 21 21 21 21 21 21 21 20 19 19 19 19 19 20 20 20 20 20 20 20 20 20 19
21 21 21 21 21 20 20 20 21 20 20 21 22 23 24 24 24 23 22 22 23 23 23 23 23 22 22 22 22 22 22 22 22 22 22 22 23 23 23 23 22 22 22 22 22 22 22 22 22 22 22 22 22 22 22 22 22 22 22 21 21 20 20 19 19 20 20 20 19 19 18 18 18 19 19 19 19 20 20 20 19 19 19 19 18
20 20 20 20 20 20 20 20 21 20 19 20 22 23 23 24 24 23 22 21 22 22 22 22 22 22 22 21 21 21 21 21 22 22 22 22 22 22 22 22 21 21 21 21 21 21 21 21 21 21 21 21 21 21 21 21 21 21 21 21 20 20 19 19 19 18 19 19 18 18 18 18 18 19 19 19 19 19 19 19 19 19 18 18 18
20 20 19 19 20 20 20 20 21 20 20 20 21 22 23 22 22 21 21 21 21 21 21 21 21 21 21 21 21 21 21 21 21 21 21 21 22 22 21 21 20 20 20 20 20 20 20 19 20 20 20 20 20 20 20 20 21 21 21 20 20 19 19 18 18 18 18 18 18 18 18 18 18 18 18 18 18 18 18 18 18 18 18 17 17
20 19 19 19 20 20 20 21 21 21 20 19 19 20 21 21 20 19 20 20 21 20 20 21 20 20 20 20 20 20 20 20 20 20 21 21 21 21 21 20 20 20 19 19 19 19 19 19 19 19 19 19 19 19 19 20 20 20 20 20 19 19 18 18 18 18 18 18 18 18 18 18 18 17 17 17 17 17 17 17 17 17 17 16 15
19 19 19 19 19 20 20 20 21 20 20 19 19 20 21 20 19 19 19 20 20 20 19 19 19 18 18 19 19 19 19 20 20 20 20 20 20 20 20 20 19 19 19 19 19 18 18 18 18 18 18 18 18 18 18 19 19 19 19 19 19 18 18 18 18 18 18 18 18 18 17 17 17 17 16 16 16 16 16 16 16 16 16 15 14
19 19 19 19 19 19 19 19 19 19 19 19 19 19 19 19 19 19 19 19 19 19 18 18 18 18 17 18 18 18 18 18 19 19 19 19 19 19 19 19 19 18 18 18 19 18 18 18 18 18 18 18 18 17 17 18 18 18 18 18 18 18 18 18 18 18 18 18 18 17 17 16 16 16 16 16 15 15 15 15 15 15 15 14 14
19 19 19 19 19 18 18 18 18 18 19 19 19 18 18 18 18 18 18 18 17 17 17 17 17 17 17 17 17 18 18 18 18 18 18 18 18 19 19 19 19 19 19 19 19 19 18 19 18 18 17 17 17 17 17 17 17 17 17 18 18 17 18 18 18 18 18 18 17 16 16 15 15 15 15 15 15 15 15 14 14 14 14 14 14
18 18 18 18 18 18 18 18 18 18 18 18 18 18 18 18 17 17 17 16 16 16 16 16 16 17 16 16 16 16 16 16 17 17 17 18 18 18 19 19 19 19 19 19 19 19 19 19 18 18 17 17 17 17 17 17 17 17 17 18 17 18 18 18 18 18 18 17 16 15 15 15 15 14 14 14 14 15 14 14 14 14 14 13 13
18 18 17 17 17 17 17 17 18 18 18 18 18 18 18 17 17 16 16 16 16 16 16 16 16 16 16 16 16 16 16 15 15 16 16 17 18 18 19 19 19 19 19 19 19 19 19 19 18 18 17 17 17 17 17 16 17 17 17 17 18 18 18 17 17 17 17 16 15 14 14 14 14 14 14 14 14 14 14 14 14 14 13 13 13
17 17 16 16 16 16 17 17 17 17 17 17 17 17 17 17 17 16 16 16 16 16 16 16 16 16 15 15 16 16 15 15 15 16 17 18 18 18 18 18 18 18 18 18 18 18 18 18 18 17 17 17 17 17 17 17 17 17 17 17 17 17 17 17 17 16 15 15 14 14 14 14 14 14 14 14 14 14 13 13 14 13 13 13 13
17 16 16 16 16 16 16 16 16 16 17 17 17 17 17 17 17 17 17 17 16 16 16 16 16 16 16 16 16 16 16 16 16 17 17 17 18 18 18 18 18 18 18 17 18 18 18 18 17 17 16 16 17 17 17 17 17 17 17 17 17 16 16 16 16 15 15 14 14 14 13 14 14 14 14 14 13 13 13 13 13 12 12 12 12
17 17 17 17 17 17 17 17 17 17 17 17 17 17 17 17 17 17 16 17 17 16 17 17 16 16 16 16 16 16 16 17 17 17 17 17 17 17 17 18 17 18 17 17 17 17 17 16 16 16 16 16 17 17 17 17 17 16 16 16 16 16 16 15 15 15 14 14 14 13 13 13 13 13 13 13 13 12 12 12 12 11 11 11 11
18 17 17 18 18 17 18 17 17 17 17 17 17 17 17 17 17 17 17 17 17 17 17 17 17 17 17 16 16 16 17 17 16 16 16 16 17 17 17 17 17 17 17 16 16 16 16 16 16 16 16 16 16 16 16 16 16 16 16 16 16 15 15 15 15 14 14 14 14 13 13 13 13 13 13 12 12 12 11 11 11 11 11 11 10
18 18 18 18 18 18 18 18 18 18 18 18 18 17 17 17 17 17 17 17 17 17 17 17 17 17 17 16 16 16 16 16 16 16 16 16 16 16 16 16 16 16 16 16 16 16 16 16 16 16 16 16 16 16 16 16 16 15 15 15 15 15 15 15 14 14 14 14 13 13 13 13 13 12 12 12 11 11 11 11 10 10 10 10 9
18 18 18 18 18 18 18 17 17 18 18 18 18 18 17 17 17 17 17 17 17 17 17 17 17 17 17 16 16 16 16 16 15 15 15 15 15 15 15 15 16 16 16 16 16 16 16 16 16 16 16 16 16 16 16 16 15 15 15 15 15 15 14 14 14 14 14 13 13 13 13 12 12 12 11 11 10 10 10 10 10 9 9 8 8
18 18 18 18 18 18 18 17 17 17 17 18 18 18 18 17 17 17 17 17 17 17 17 17 17 16 16 16 16 16 16 15 15 15 15 15 15 15 15 15 15 16 16 16 16 16 16 16 16 16 16 16 16 16 15 15 15 15 15 14 14 14 14 14 14 13 13 13 13 12 12 12 11 11 10 10 10 9 9 9 8 8 8 7 8
17 17 17 17 18 18 18 17 17 17 18 18 18 18 18 17 17 17 17 17 17 17 17 17 16 16 16 16 16 16 15 15 15 15 15 15 14 14 14 15 15 16 16 16 16 16 16 16 16 16 16 16 15 15 15 15 15 14 14 14 14 14 14 13 13 13 13 13 12 12 11 11 10 10 10 9 9 9 8 8 7 7 7 7 7
17 17 18 18 18 18 18 18 17 17 17 17 17 17 17 17 17 17 16 16 16 16 16 16 16 16 16 16 15 15 15 15 15 15 15 15 14 14 14 15 15 15 15 16 16 16 16 16 15 15 15 15 15 15 15 14 14 14 14 14 14 13 13 13 13 12 12 12 11 11 10 10 10 9 9 8 8 8 7 7 7 7 7 7 7
17 17 17 18 18 18 18 18 17 17 17 17 17 17 17 17 17 17 17 16 16 15 15 15 15 15 15 15 15 15 14 14 14 14 14 14 14 14 14 14 15 15 15 15 15 15 15 15 15 15 15 15 15 14 14 14 14 14 13 13 13 13 12 12 12 12 11 11 11 10 9 9 9 8 8 8 7 7 6 6 6 6 6 6 6
17 17 17 17 17 18 18 18 17 17 17 17 17 17 17 17 17 17 16 16 16 16 15 15 15 15 15 15 14 14 14 14 14 14 14 14 14 14 14 14 15 15 15 15 15 15 15 15 14 14 14 14 14 14 14 13 13 13 13 13 12 12 12 12 11 11 10 10 10 9 9 8 8 7 7 7 6 6 6 6 6 6 6 6 6
17 17 17 17 17 17 17 17 17 17 17 17 17 17 16 16 16 16 16 16 16 16 15 15 15 15 15 14 14 14 14 14 14 14 14 14 15 14 14 14 14 14 14 14 14 14 14 14 14 14 14 13 13 13 13 13 13 12 12 12 12 11 11 11 10 10 10 9 9 8 8 7 7 7 6 6 6 5 5 5 5 5 5 5 5
17 17 17 17 17 17 17 17 17 17 17 16 16 16 16 16 16 16 16 16 16 15 15 15 15 15 15 15 14 14 14 14 14 14 14 14 15 14 14 14 14 14 14 14 14 14 14 13 13 13 13 13 13 13 13 12 12 12 12 11 11 11 11 10 10 9 9 8 8 7 7 7 6 6 6 5 5 5 5 5 5 5 4 4 4
17 17 17 17 17 17 17 17 17 16 16 16 16 16 16 16 16 16 16 16 16 16 16 15 15 15 15 15 15 15 14 14 14 14 14 14 14 14 14 13 13 13 13 13 13 13 13 13 13 13 13 12 12 12 12 12 11 11 11 11 11 10 10 9 9 9 8 8 7 7 6 6 6 6 5 5 5 4 4 4 4 4 4 4 4
16 16 16 16 16 16 16 16 16 16 16 16 16 16 16 16 16 16 16 16 16 16 16 16 16 16 16 15 15 15 15 14 14 14 14 14 14 14 13 13 13 13 13 13 13 13 12 12 12 12 12 12 11 11 11 11 11 10 10 10 10 9 9 9 8 8 7 7 7 6 6 6 5 5 5 5 4 4 4 4 4 4 3 3 3
16 16 16 16 16 16 16 16 16 16 16 16 16 16 16 16 16 16 16 16 16 16 16 16 16 16 16 15 15 15 15 14 14 14 14 14 14 13 13 13 13 13 12 12 12 12 12 12 11 11 11 11 11 10 10 10 10 10 9 9 9 9 8 8 7 7 7 6 6 6 5 5 5 5 5 4 4 4 4 3 3 3 3 3 3
16 16 16 16 16 16 16 16 16 16 16 16 16 16 16 15 15 15 15 16 16 16 16 16 16 16 16 15 14 14 14 14 14 14 14 14 13 13 13 12 12 12 12 12 12 11 11 11 11 10 10 10 10 10 9 9 9 9 8 8 8 8 7 7 7 6 6 6 5 5 5 5 5 4 4 4 4 3 3 3 3 3 3 3 3
16 16 16 16 16 16 16 16 16 16 15 15 15 15 15 15 15 15 15 15 16 16 16 16 16 16 16 15 14 14 14 14 13 13 13 13 13 13 12 12 12 12 11 11 11 11 10 10 10 10 10 9 9 9 9 8 8 8 8 8 7 7 7 6 6 6 5 5 5 5 5 4 4 4 4 3 3 3 3 2 2 2 2 3 3
14 15 15 15 15 15 15 15 15 15 15 15 15 15 15 15 15 15 15 15 15 16 16 16 16 16 16 15 14 13 13 13 13 13 13 13 12 12 12 12 11 11 11 11 10 10 10 10 9 9 9 9 9 8 8 8 8 7 7 7 7 6 6 6 5 5 5 5 5 4 4 4 4 3 3 3 3 2 2 2 2 2 2 2 3
14 14 14 14 14 14 15 15 15 15 15 15 15 15 15 15 15 15 15 16 16 16 16 16 16 16 15 15 14 13 13 13 13 13 13 12 12 12 11 11 11 11 10 10 10 9 9 9 9 8 8 8 8 7 7 7 7 6 6 6 6 6 5 5 5 5 5 5 4 4 4 3 3 3 3 3 2 2 2 2 2 2 2 2 3
14 14 14 13 13 13 13 13 14 14 14 14 14 14 14 15 15 15 15 15 16 16 16 16 15 15 15 15 14 13 13 13 13 13 12 12 12 11 11 11 10 10 10 9 9 9 8 8 8 8 7 7 7 6 6 6 6 6 6 6 5 5 5 5 5 5 4 4 4 4 3 3 3 3 3 3 2 2 2 2 2 2 3 3 3
14 14 14 14 13 13 13 13 13 13 13 13 13 14 14 14 14 15 15 15 15 15 15 15 15 15 15 14 14 13 13 13 13 13 12 12 11 11 10 10 10 9 9 9 8 8 8 8 7 7 7 6 6 6 6 6 5 5 5 5 5 5 4 4 4 4 4 4 4 3 3 3 3 3 3 3 3 3 3 3 2 2 3 3 3
14 14 13 13 13 13 13 13 13 13 13 13 13 13 13 14 14 14 15 15 15 15 15 15 15 15 14 14 14 13 13 13 13 12 12 11 11 10 10 10 9 9 9 8 8 8 7 7 7 6 6 6 6 5 5 5 5 5 5 5 4 4 4 4 4 4 4 4 4 3 3 3 3 3 3 3 3 3 3 3 3 3 3 3 3
13 13 13 13 13 12 12 12 12 12 12 12 12 13 13 13 13 14 14 14 14 14 15 15 15 14 14 14 13 13 12 12 12 12 11 11 10 10 9 9 9 8 8 8 8 7 7 7 6 6 6 5 5 5 5 5 5 5 4 4 4 4 4 4 4 4 4 3 3 3 3 3 3 3 3 3 3 3 3 3 3 3 3 3 3
12 12 12 12 12 12 12 12 12 12 12 12 12 12 12 12 13 13 13 13 13 13 14 14 14 14 14 13 13 12 12 12 12 11 11 10 10 9 9 8 8 8 8 7 7 7 6 6 6 6 5 5 5 5 5 5 5 5 4 4 4 4 4 4 4 4 4 3 3 3 3 3 3 3 3 3 3 3 3 3 3 3 3 3 3
11 11 11 12 12 12 12 11 11 11 11 11 11 11 11 12 12 12 13 13 13 13 13 14 14 14 13 13 13 12 12 12 11 11 10 10 9 9 8 8 8 8 7 7 7 6 6 6 6 5 5 5 5 5 5 5 5 4 4 4 4 4 4 4 4 4 4 3 3 3 3 3 3 3 3 3 3 3 3 3 3 3 2 3 3
Height
830 832 834 836 837 838 840 842 844 846 847 848 849 850 851 852 852 854 854 855 856 857 858 859 859 861 861 862 863 864 864 865 866 866 867 868 868 869 870 871 871 871 872 872 872 873 873 873 873 873 873 873 873 873 872 872 872 872 872 871 871 871 871 871 871 870 869 869 868 868 867 867 866 866 865 864 863 862 861 860 859 858 857 856 855
829 831 833 835 837 838 840 841 843 845 846 847 849 849 850 851 851 852 853 854 855 855 857 857 858 859 860 860 861 862 863 864 865 866 866 867 868 868 869 870 870 871 871 872 872 872 872 872 872 872 872 872 872 872 872 871 871 871 870 870 870 870 870 870 869 869 868 868 867 867 866 866 865 865 864 863 862 861 860 859 858 857 856 856 855
828 831 833 834 836 838 839 841 843 844 846 847 848 848 849 850 850 851 851 853 853 854 855 856 857 858 858 859 860 861 862 863 864 865 866 866 867 868 868 869 869 870 870 871 871 871 871 871 871 871 871 871 870 870 870 870 870 870 870 869 869 869 869 869 868 868 867 867 866 866 865 865 865 864 863 862 861 860 859 858 857 857 856 855 854
828 830 832 834 836 837 839 841 842 844 845 846 847 848 848 849 850 850 851 851 852 853 854 855 856 856 857 858 859 860 860 861 863 864 865 865 866 866 867 868 868 869 870 870 870 870 870 870 870 870 870 870 870 869 869 869 869 868 868 868 868 868 868 868 867 867 867 866 865 865 865 864 864 863 862 861 860 859 858 857 857 856 855 854 854
827 829 831 833 835 837 838 840 842 843 844 845 846 847 847 848 849 849 849 850 851 852 853 854 854 855 856 857 858 859 860 860 862 863 864 864 865 865 866 867 868 868 869 869 869 869 869 869 869 869 869 868 868 868 868 868 867 867 867 867 867 867 866 866 866 866 866 865 864 864 864 863 863 862 861 860 859 858 857 857 856 855 854 854 853
827 828 830 832 833 835 837 839 841 842 844 845 845 846 847 847 848 848 848 849 849 850 851 852 853 853 854 855 857 858 859 860 860 861 862 863 863 864 865 866 866 867 867 867 868 868 868 868 868 868 868 867 867 867 867 866 866 866 866 865 865 865 865 865 865 865 864 864 863 863 863 862 862 861 860 859 858 856 856 855 855 854 853 852 852
827 828 830 831 832 834 835 838 839 841 842 843 844 845 846 847 847 847 848 848 848 849 849 850 851 852 853 854 855 856 857 859 859 860 861 862 862 863 864 864 865 865 866 866 866 866 866 866 867 866 866 866 866 866 865 865 865 865 865 864 864 864 864 863 863 863 863 863 862 862 862 861 861 860 859 858 857 856 855 854 853 853 852 851 850
825 828 830 831 832 833 834 836 838 840 841 842 843 844 845 846 846 846 847 847 847 848 848 849 850 850 852 852 854 855 856 857 858 859 860 860 861 861 862 863 863 864 864 865 865 865 865 865 865 865 865 865 864 864 864 864 864 863 863 863 863 862 862 862 862 862 862 861 861 861 861 860 859 859 858 857 857 856 855 854 853 852 852 851 850
821 825 829 830 831 831 833 835 837 839 841 841 842 843 844 845 845 846 846 846 847 847 848 848 849 849 850 851 852 853 854 855 856 857 858 859 859 860 860 861 862 863 863 863 863 863 863 863 863 863 863 863 863 863 863 863 863 862 862 862 862 861 861 861 860 860 860 860 860 860 859 859 858 858 857 856 856 855 855 854 853 852 852 851 850
818 821 824 827 829 831 832 834 836 838 839 840 841 842 843 844 844 845 845 845 846 846 847 847 848 848 849 850 851 852 853 854 855 856 856 857 858 858 859 860 861 862 862 862 862 862 862 862 862 862 862 862 862 862 862 862 862 862 861 861 861 860 860 859 859 859 860 859 859 858 858 857 857 857 856 856 856 855 854 854 853 852 851 850 850
816 818 820 823 827 829 831 832 834 835 837 839 839 840 842 843 843 844 844 844 845 845 846 846 846 847 848 849 849 850 851 852 853 854 855 855 856 856 857 859 860 860 860 861 861 861 861 861 861 861 860 860 861 861 861 861 861 861 861 860 860 859 859 859 859 858 858 858 858 857 857 856 856 856 856 855 855 854 854 853 852 852 851 850 849
815 816 818 821 824 827 829 830 832 833 834 836 837 838 840 841 842 843 843 843 844 844 844 845 845 846 846 847 848 849 849 850 851 852 853 853 854 854 856 858 859 858 859 859 859 859 860 860 860 860 859 859 860 860 860 860 860 860 859 859 859 858 858 858 858 857 857 857 857 856 856 855 855 855 855 854 854 854 853 853 852 852 851 851 850
814 816 818 820 822 826 829 830 831 832 832 833 835 836 838 839 840 841 841 842 842 843 843 843 844 844 845 846 846 847 848 848 849 850 850 851 852 852 853 856 858 857 856 857 858 858 858 858 858 858 858 858 858 859 859 859 859 858 858 858 858 858 857 857 857 856 856 856 856 855 855 855 855 854 854 854 853 853 853 853 852 852 851 851 850
815 816 818 819 821 823 826 829 830 831 831 832 833 834 835 837 838 839 840 840 840 841 841 841 842 843 843 844 845 845 846 847 847 848 849 849 850 850 851 854 856 857 856 855 856 856 856 857 857 857 857 857 857 858 858 858 858 858 857 857 857 857 856 856 856 855 855 855 855 854 854 854 854 854 853 853 853 853 852 852 852 851 851 850 850
815 816 818 820 820 821 822 826 831 833 831 831 831 832 833 835 836 837 838 838 838 839 839 840 840 841 842 843 843 844 845 845 846 846 847 848 848 849 850 851 853 855 855 855 855 855 855 855 855 855 856 856 856 856 857 857 857 857 857 856 856 856 856 856 855 855 854 854 854 854 854 854 853 853 853 853 853 853 852 852 851 851 850 849 849
813 815 817 818 819 820 820 824 830 834 833 830 829 829 830 831 833 836 837 837 836 836 837 838 839 840 840 841 842 843 843 844 844 845 846 847 847 848 848 849 850 852 852 853 853 853 853 854 854 854 854 855 855 855 855 856 856 856 856 856 856 856 855 855 855 855 854 854 854 853 853 853 853 853 853 853 852 852 852 851 851 850 849 849 849
812 814 816 817 819 820 821 823 826 830 832 831 828 827 827 828 830 832 836 837 835 834 835 835 836 837 838 840 841 841 842 843 843 844 845 846 846 847 847 848 848 849 850 851 852 852 853 853 853 853 853 854 854 854 854 855 855 855 855 855 855 855 855 855 855 855 854 854 854 854 854 854 854 853 853 852 852 851 851 850 850 849 849 849 848
811 814 817 818 819 820 822 822 822 825 831 831 828 825 825 827 828 829 833 835 835 834 834 834 834 835 836 837 839 840 841 842 843 843 844 845 845 846 846 847 847 847 848 849 850 851 852 852 852 852 852 852 852 853 853 853 854 854 854 854 854 854 855 855 855 855 855 855 855 855 855 854 854 854 853 853 852 851 850 850 850 849 849 848 848
810 815 819 820 819 820 821 821 820 823 828 830 826 823 824 827 829 830 832 834 834 834 834 834 834 834 834 835 837 838 840 841 842 843 843 844 844 845 846 846 846 847 848 849 850 850 850 851 851 851 851 851 851 851 852 852 852 852 853 853 853 854 854 855 855 855 855 855 855 856 855 855 855 854 854 853 852 852 851 850 850 849 849 848 848
811 816 819 819 818 818 818 817 817 818 823 827 827 825 825 827 830 833 834 834 834 834 834 834 834 834 835 835 835 837 839 840 841 842 843 843 844 844 845 845 846 846 847 848 849 850 850 851 850 850 850 850 850 851 851 851 851 851 852 851 852 853 854 854 855 855 855 856 856 856 856 856 856 855 855 854 853 853 852 851 851 850 849 849 848
812 815 817 816 816 816 815 815 816 818 822 826 826 825 825 826 828 831 833 833 834 834 835 835 835 835 835 835 836 837 839 840 841 842 842 843 843 844 844 845 845 846 847 848 849 849 850 850 850 850 850 850 850 850 851 851 850 851 851 852 852 853 854 855 855 856 856 856 857 857 857 856 856 856 856 855 854 854 853 852 852 851 850 850 850
811 813 813 814 814 814 814 816 818 820 822 822 822 823 824 825 826 828 829 831 832 833 834 835 835 835 836 836 836 838 840 841 842 842 843 844 844 844 845 845 845 846 847 848 848 848 849 849 850 850 850 851 851 850 851 852 851 850 851 852 853 855 856 856 856 856 857 857 857 857 857 856 856 856 856 856 855 855 854 854 853 853 852 851 851
810 811 812 812 813 814 815 817 818 820 820 820 820 822 824 825 826 826 827 828 830 831 832 833 833 834 835 836 837 839 841 842 843 844 844 844 845 845 846 846 846 846 846 847 847 848 848 848 849 849 849 851 852 852 853 853 853 852 851 852 853 856 857 857 857 857 857 857 857 857 857 857 856 857 857 856 856 856 855 855 855 855 854 853 853
809 810 811 812 813 815 816 817 818 819 821 821 822 823 824 825 826 826 826 827 829 831 832 832 832 833 835 837 839 841 843 844 844 845 845 846 846 847 847 847 847 847 847 847 847 847 848 848 848 848 849 850 851 852 853 854 854 853 853 853 855 857 858 858 857 857 857 857 857 857 858 858 857 857 857 857 857 856 856 856 856 856 855 855 854
809 811 813 814 816 817 817 818 819 821 823 824 825 825 826 826 827 829 829 830 831 832 834 835 834 835 838 840 842 843 845 846 847 847 847 847 847 847 847 847 847 847 847 847 847 847 847 848 848 848 849 849 850 851 852 854 855 855 855 855 856 857 858 858 858 858 858 858 858 858 858 859 859 859 859 858 858 857 857 857 857 856 856 855 854
811 813 815 817 819 819 819 820 821 822 823 825 826 827 828 828 829 831 831 832 833 834 836 837 837 839 840 842 843 844 846 848 850 849 848 848 848 848 848 848 848 848 848 847 847 848 848 848 849 849 849 850 851 852 853 854 855 856 856 857 857 857 858 858 858 858 858 858 859 859 859 860 860 860 859 859 858 858 858 857 857 856 856 855 854
814 816 818 819 821 822 822 823 823 824 826 827 828 829 830 830 831 832 833 834 835 836 837 838 839 840 842 843 844 846 848 850 851 850 849 849 849 849 849 849 849 849 848 848 848 848 848 849 850 850 852 853 853 854 854 855 855 856 857 857 858 858 858 858 858 858 858 859 859 860 860 861 861 860 860 859 859 858 858 857 856 856 855 854 853
817 819 820 821 822 824 825 825 826 827 828 830 830 831 832 833 833 834 835 836 837 837 838 839 840 841 842 843 845 847 849 850 850 850 850 849 849 849 849 849 849 849 849 848 848 848 849 850 851 852 853 854 855 855 855 856 856 857 857 858 858 859 859 859 859 859 859 860 860 861 861 861 861 861 861 860 860 859 858 857 856 855 854 854 853
821 821 822 823 824 826 827 828 828 829 830 831 832 833 833 834 834 835 836 837 838 839 840 840 841 842 843 844 846 847 849 850 850 850 850 850 850 849 849 849 849 849 849 849 849 850 850 851 852 853 854 855 856 856 857 857 857 858 858 858 859 860 860 860 860 860 860 861 861 861 861 861 861 862 861 861 860 860 859 858 857 856 855 854 853
824 824 824 825 826 828 829 830 830 831 831 831 832 833 833 834 835 836 837 838 840 841 841 842 843 844 844 846 847 848 848 849 850 850 850 850 850 850 850 850 850 850 850 850 851 851 851 852 853 854 855 856 857 857 858 858 859 859 859 860 860 861 861 861 861 861 861 861 861 861 861 862 862 862 862 861 860 860 859 858 857 856 855 854 853
826 827 827 828 828 829 830 831 831 832 832 832 832 833 834 835 836 837 838 839 840 842 843 843 844 845 845 846 847 848 848 849 849 849 850 850 850 850 850 850 850 851 851 851 852 852 853 853 854 855 856 857 858 858 859 859 859 859 860 860 861 862 862 862 862 862 862 862 862 862 862 862 862 862 862 862 861 860 859 858 857 856 855 854 853
828 829 830 830 830 831 831 832 832 833 833 833 833 834 835 836 837 838 840 840 841 842 844 844 845 845 846 846 847 848 848 848 849 849 849 850 850 850 850 851 851 851 852 852 852 853 854 854 855 856 857 858 858 859 859 859 859 860 860 861 862 862 862 862 862 862 862 862 862 862 862 862 863 862 862 862 861 860 859 858 857 856 855 854 853
830 830 831 831 831 832 832 832 833 833 834 834 835 835 836 838 839 840 841 842 843 844 844 845 846 846 846 847 847 848 849 849 849 849 850 850 850 850 851 851 851 852 852 852 853 854 854 855 856 857 857 858 858 858 859 859 859 860 860 861 862 862 862 863 863 863 863 863 863 863 863 863 863 863 862 862 861 860 859 858 857 856 854 853 852
831 831 832 832 832 833 833 833 834 834 835 835 836 837 838 839 840 841 842 843 843 844 845 846 846 847 847 848 848 849 849 850 850 851 851 851 851 851 851 852 852 852 852 853 853 854 855 856 856 857 857 857 858 858 859 859 860 860 861 861 862 862 863 863 863 863 863 863 863 863 863 863 863 862 862 861 860 860 859 858 857 856 854 853 851
831 832 832 833 833 833 834 834 834 835 835 836 837 838 839 840 841 842 842 842 843 845 846 847 847 848 848 849 849 850 850 851 851 852 852 852 852 852 852 852 852 852 853 853 853 854 855 855 856 856 857 857 858 858 859 859 860 860 861 861 862 862 863 863 863 863 863 863 863 863 862 862 862 862 861 861 860 860 859 858 857 855 854 852 850
832 832 833 833 834 834 834 835 835 836 837 837 838 839 840 841 841 842 843 843 844 845 846 847 848 848 849 850 850 851 851 852 852 853 853 853 853 853 853 853 853 853 853 853 854 854 855 855 856 856 857 858 858 859 859 860 860 861 861 862 862 862 863 863 863 862 862 862 862 862 862 862 862 862 861 861 860 859 858 857 856 854 853 851 849
833 833 833 834 834 835 835 836 836 837 837 838 839 839 840 841 841 842 843 844 844 845 846 847 847 848 849 850 850 851 852 852 853 853 854 854 854 854 854 854 854 854 854 854 854 855 855 856 857 857 858 859 859 860 860 860 861 861 861 862 862 862 862 862 862 862 862 862 862 862 862 861 861 861 861 860 859 858 857 856 855 853 852 850 848
833 834 834 835 835 835 836 836 836 837 838 838 839 839 840 840 841 842 842 843 844 845 846 846 847 848 848 849 850 851 852 853 853 854 854 855 855 855 855 855 855 855 855 855 856 856 856 857 858 859 859 860 860 860 861 861 861 861 861 862 862 862 862 862 862 861 861 861 861 861 861 861 861 860 860 859 859 857 856 855 854 852 850 848 847
834 834 835 835 835 836 836 836 837 837 838 838 839 839 840 840 841 841 842 843 843 844 845 846 846 847 848 849 850 851 852 852 853 854 855 855 855 855 855 855 856 856 856 857 857 857 858 858 859 860 860 861 861 861 861 861 861 861 861 861 862 861 861 861 861 861 861 861 861 860 860 860 860 859 859 858 858 857 855 854 852 851 849 847 846
834 835 835 835 835 836 836 836 837 837 838 838 839 839 840 840 840 841 841 842 842 843 844 844 845 846 847 848 849 850 851 852 853 854 855 855 855 855 855 855 856 856 857 857 858 858 859 859 860 860 861 861 861 861 861 861 861 861 861 861 861 861 861 861 861 860 860 860 860 860 860 860 859 859 858 857 857 856 854 853 851 850 848 847 845
834 834 835 835 835 835 835 836 836 837 837 838 838 839 839 840 840 840 841 841 841 842 843 843 844 845 846 847 848 849 850 851 852 853 854 854 855 855 855 855 856 856 857 857 858 858 859 859 860 860 860 861 861 861 861 861 861 861 861 860 860 860 860 860 860 860 860 860 860 860 859 859 858 858 857 857 856 854 853 851 850 848 847 846 844
833 833 834 834 834 835 835 835 836 836 837 837 838 838 839 839 839 839 840 840 841 841 842 842 843 843 844 845 847 848 849 850 851 852 853 853 854 854 854 855 855 856 856 857 857 858 858 859 859 859 860 860 860 860 860 860 860 860 860 860 860 860 860 860 860 860 860 860 860 859 859 858 858 857 857 856 855 853 852 850 849 847 846 845 844
832 832 833 833 833 834 834 834 835 836 836 837 837 837 838 838 838 838 838 839 840 840 841 841 842 842 843 844 845 846 848 849 850 851 852 852 853 853 854 854 855 855 856 856 857 857 858 858 858 859 859 859 859 859 859 859 859 859 859 859 859 859 859 859 859 859 859 859 859 859 858 858 857 857 856 855 854 852 851 850 848 847 846 844 843
831 832 832 832 832 833 833 833 834 834 835 835 836 836 836 836 837 837 837 837 838 838 839 840 840 841 842 842 843 844 845 846 847 849 850 851 852 852 853 854 854 855 855 856 856 857 857 857 857 857 857 858 858 858 858 858 858 858 858 858 858 858 859 859 859 859 859 859 859 858 858 858 857 856 855 854 853 851 850 849 847 846 845 844 842
830 831 831 831 832 832 832 832 833 833 833 833 834 834 834 834 835 835 835 836 836 836 837 838 838 839 840 840 841 842 843 844 845 847 848 849 850 851 852 853 853 854 855 855 855 856 856 856 856 856 856 856 856 856 856 856 857 857 857 857 858 858 858 858 858 858 858 858 858 858 857 857 856 855 854 853 852 851 849 848 847 845 844 843 841
830 830 830 830 831 831 831 831 832 832 831 832 832 832 832 832 833 833 834 834 834 834 835 835 836 837 837 838 839 840 841 842 843 845 846 847 849 850 851 852 852 853 853 854 854 855 855 855 855 855 855 855 855 855 855 856 856 856 857 857 857 858 858 858 858 858 858 858 857 857 857 856 855 855 854 853 852 850 849 848 847 845 844 842 840
829 828 829 829 829 829 829 829 829 830 830 830 830 829 829 830 830 831 832 832 832 833 833 833 834 835 835 836 836 837 839 840 841 842 844 845 847 848 849 850 851 852 852 853 853 853 853 853 853 853 853 854 854 854 855 855 855 856 856 856 857 857 857 857 857 857 857 857 856 856 856 855 854 854 853 852 851 849 848 847 846 844 843 841 839
828 828 827 827 827 827 827 827 827 828 828 827 827 827 827 828 828 829 829 830 830 830 830 831 832 832 833 834 835 835 837 838 839 840 842 843 845 846 848 848 849 850 851 851 852 852 852 852 852 852 852 853 853 853 854 854 855 855 855 856 856 856 856 856 856 856 856 856 855 855 855 854 853 852 851 850 849 848 847 846 844 843 841 840 838
827 827 826 826 826 826 826 826 826 826 825 825 826 825 825 826 826 826 827 827 827 827 828 828 829 830 831 832 833 834 836 837 838 840 841 842 844 845 847 847 848 849 849 850 850 851 851 851 851 851 852 852 852 853 853 854 854 854 854 855 855 855 855 855 855 855 855 854 854 854 853 852 852 851 850 849 848 847 845 844 842 841 840 838 837
826 825 825 825 824 824 824 824 824 824 824 824 824 823 823 824 823 823 824 824 824 825 825 826 827 827 828 829 831 832 834 836 837 840 841 843 844 845 846 847 847 848 848 849 849 850 850 850 850 851 851 851 852 852 852 853 853 853 853 854 854 854 854 854 854 854 854 853 853 852 851 851 850 849 848 847 846 845 843 842 841 839 838 836 835
824 824 823 823 823 822 822 822 822 822 822 822 822 822 822 821 821 821 821 821 821 822 823 824 824 825 826 827 829 830 831 833 835 838 840 842 843 844 845 846 846 847 848 848 848 848 849 849 849 850 850 851 851 851 851 852 852 852 852 853 853 853 853 853 853 852 852 851 851 850 849 848 847 847 846 845 843 842 841 839 838 837 836 835 833
Wind_Speed
27 27 27 26 26 25 24 23 22 20 18 17 17 17 16 16 16 15 14 14 15 14 14 13 14 14 13 12 11 11 11 10 10 9 9 9 10 10 9 9 9 8 8 7 7 6 7 6 6 6 6 6 6 6 7 7 7 6 7 7 7 6 7 5 6 8 10 9 9 10 9 9 10 11 13 14 11 8 9 9 10 12 12 13 14
27 27 27 26 26 25 25 24 24 22 20 18 17 17 17 17 17 16 17 17 17 17 16 15 15 15 15 14 13 11 11 11 10 9 9 9 10 10 10 10 10 9 9 9 7 7 7 7 7 7 7 7 7 7 8 7 7 7 7 7 6 7 7 7 7 8 9 10 10 10 9 9 11 11 13 13 12 10 10 10 10 11 12 13 13
27 26 25 25 25 24 24 24 24 23 21 19 18 18 18 18 18 18 18 18 18 19 18 17 16 16 16 16 14 13 12 12 12 11 10 10 11 11 12 12 11 11 11 10 9 8 8 8 8 7 8 8 8 7 7 7 7 8 8 7 6 7 8 9 9 9 9 10 11 11 10 10 11 12 13 13 12 11 11 11 11 11 12 13 13
25 25 25 24 23 23 23 22 22 23 22 20 19 19 18 19 19 19 18 18 18 19 19 18 17 17 18 18 17 15 14 13 14 13 12 12 12 12 12 12 12 12 11 11 11 11 10 9 8 8 8 8 8 8 8 8 8 8 8 8 8 8 8 9 10 10 9 11 12 13 12 12 12 13 13 13 12 12 12 12 11 11 12 13 13
24 25 24 24 23 22 22 21 21 22 22 21 20 20 19 19 19 19 18 18 18 18 18 18 17 17 17 18 18 17 15 15 15 14 14 14 14 13 13 13 12 12 12 13 13 13 12 11 9 9 10 10 10 10 10 9 9 8 9 9 9 9 9 9 9 10 11 12 14 14 12 12 13 13 13 14 15 14 13 12 12 12 14 14 15
22 24 24 23 23 23 22 21 21 22 22 21 21 21 20 20 20 20 19 19 18 17 17 16 16 15 16 17 18 17 16 15 15 15 15 15 15 14 14 13 13 13 13 13 13 13 14 13 12 11 11 11 11 10 9 9 9 10 10 10 11 11 10 9 9 10 12 12 12 12 12 13 13 13 12 13 14 14 14 14 13 14 16 17 17
18 21 23 23 24 24 24 23 23 22 22 22 21 21 20 21 21 20 19 19 18 17 17 16 15 14 14 15 16 17 16 16 15 15 15 15 16 16 15 15 16 15 14 13 13 13 14 14 13 11 11 10 10 9 9 9 9 10 9 10 10 11 11 11 10 10 11 11 10 11 12 12 12 12 12 13 13 12 13 15 16 17 18 18 18
17 17 20 22 24 25 25 25 24 23 22 21 21 21 21 21 21 20 19 19 19 18 17 15 14 14 14 14 14 15 16 16 16 16 16 16 16 17 17 18 18 16 13 12 12 12 12 12 12 11 11 10 9 9 9 9 9 10 10 10 10 10 11 11 10 10 10 10 10 11 11 12 11 11 12 13 12 12 13 14 15 17 18 18 17
20 18 18 21 24 26 26 25 25 24 23 22 21 21 21 21 21 20 20 19 19 18 17 16 15 15 15 14 13 15 16 17 16 16 16 17 16 16 16 16 16 15 13 12 12 11 11 11 11 11 11 10 9 9 9 9 10 10 10 9 9 10 10 10 11 11 10 10 11 11 11 11 11 11 12 12 11 12 12 13 14 16 17 17 15
22 21 21 22 24 25 26 26 26 24 23 23 22 22 22 22 22 22 20 19 19 18 18 18 17 16 15 14 15 16 17 17 16 16 16 16 16 15 14 14 14 14 13 13 12 12 11 10 10 10 10 10 10 10 10 10 9 9 8 8 8 8 8 9 10 10 10 11 12 11 10 10 10 10 11 11 10 11 12 12 13 14 14 15 14
23 24 25 25 24 24 25 26 26 26 25 24 23 23 23 23 23 22 21 19 18 18 18 18 17 16 16 15 16 16 17 17 17 17 16 15 15 15 13 13 14 15 14 14 13 12 11 10 10 10 10 11 12 11 10 9 8 7 8 8 8 7 7 8 9 10 11 11 11 10 9 9 9 8 9 9 10 10 11 11 11 10 10 10 9
23 24 26 25 23 24 25 26 26 26 26 25 24 23 23 23 23 23 21 19 18 18 19 19 17 17 17 16 16 16 17 17 17 16 16 15 16 16 13 12 15 17 15 15 14 13 12 11 11 11 12 12 11 10 9 8 7 7 8 7 7 7 7 8 9 10 10 10 10 9 8 8 7 6 7 8 9 10 10 10 10 8 7 7 6
22 23 24 24 23 23 23 24 26 27 27 26 25 23 22 22 22 22 22 20 20 19 19 19 18 18 17 17 16 15 16 17 17 16 17 16 16 16 13 11 14 17 16 15 14 13 13 13 13 12 12 12 10 9 8 8 7 7 8 7 7 7 7 8 8 9 9 8 8 7 5 5 4 3 5 6 8 10 10 10 9 6 6 7 6
21 22 23 24 25 24 22 20 22 25 26 25 23 22 21 22 22 23 23 21 21 21 21 21 20 19 18 17 16 15 16 17 17 16 17 16 16 17 15 11 11 13 15 15 15 14 13 13 13 13 12 11 10 9 8 8 7 7 7 6 6 6 6 6 6 6 6 5 4 2 2 3 2 3 5 6 7 8 9 9 7 6 7 7 3
19 21 22 23 24 25 24 21 20 21 22 22 20 19 18 18 19 20 23 23 22 20 19 19 18 18 18 17 16 16 16 16 16 16 16 16 15 15 15 13 11 11 12 13 14 15 14 13 13 13 13 12 11 10 9 9 8 7 6 6 5 5 6 6 5 5 4 3 2 2 3 3 3 4 5 5 6 7 7 7 6 6 7 4 2
19 20 21 22 22 23 22 20 17 17 18 19 20 20 19 18 15 15 18 21 22 20 19 17 16 16 16 16 16 15 15 15 15 14 14 14 13 13 12 11 9 8 9 10 11 11 12 12 12 12 12 11 11 10 10 9 8 7 6 5 5 5 4 4 4 5 4 3 3 3 2 1 1 2 3 4 4 5 5 4 5 5 6 5 4
18 19 19 20 21 20 19 19 20 21 20 20 21 21 21 21 19 16 16 18 20 20 19 17 16 15 13 13 13 13 13 12 12 12 12 11 10 9 8 6 5 5 6 6 6 6 7 8 9 10 9 10 9 9 9 9 8 7 6 5 5 4 2 1 0 1 1 1 2 3 3 3 3 3 4 4 4 5 3 3 5 7 7 6 3
17 18 19 19 19 19 19 20 20 20 21 22 23 21 20 19 20 20 19 19 18 17 16 16 15 14 13 12 11 10 10 9 9 9 9 8 7 7 6 4 3 4 5 4 5 6 6 7 8 8 8 8 8 7 7 7 6 6 6 6 6 5 5 5 5 4 4 5 6 7 7 6 5 5 6 6 6 6 6 6 6 6 7 6 3
19 20 20 18 18 19 19 18 16 16 21 25 23 19 17 17 17 18 18 18 16 14 14 14 14 13 13 12 11 9 7 6 6 6 6 6 7 6 4 4 4 4 4 5 7 7 7 6 7 7 7 7 5 4 5 5 5 4 4 6 6 6 6 8 8 8 8 8 8 8 8 8 7 7 8 8 8 8 8 7 6 6 6 7 6
20 21 21 19 20 20 20 18 18 19 23 23 17 14 15 15 15 15 15 16 15 15 15 15 15 13 12 11 10 7 5 4 3 3 4 5 6 6 4 4 5 4 4 6 7 6 6 6 6 7 7 6 4 2 1 2 2 2 3 5 7 8 10 11 11 10 9 9 9 8 8 8 8 9 9 9 10 10 9 8 7 7 6 8 10
17 19 20 20 19 19 17 15 16 19 20 19 15 14 16 17 18 18 17 17 17 17 16 16 15 14 12 11 10 7 4 3 2 1 0 0 1 2 2 2 2 3 5 7 6 5 6 7 7 6 5 5 4 4 3 2 2 3 3 4 7 10 12 13 12 10 10 10 9 8 8 8 8 9 10 10 11 11 10 9 9 9 10 11 12
17 17 18 18 17 15 14 14 15 18 20 19 16 15 16 17 20 21 21 21 21 19 18 17 17 16 15 13 11 10 9 7 6 7 7 7 6 6 6 7 6 3 5 6 5 4 5 6 6 6 6 5 2 3 3 3 5 5 4 4 6 9 11 11 10 9 9 9 9 9 9 9 10 10 10 10 11 11 11 11 11 10 12 13 13
16 16 16 15 14 14 14 15 16 15 14 13 13 13 13 14 17 20 22 23 23 22 21 20 19 18 16 14 13 12 11 11 10 10 11 10 11 11 11 11 9 6 5 4 3 2 2 1 2 2 2 2 3 2 1 2 3 3 5 7 9 11 11 10 9 9 9 9 9 10 10 10 10 10 10 10 10 10 10 11 11 11 11 11 12
15 15 14 12 11 11 11 11 11 10 9 10 11 11 11 13 16 19 22 24 23 22 21 20 19 19 17 16 14 13 12 12 11 11 11 11 11 11 11 10 8 6 4 3 2 2 1 1 2 3 3 4 5 4 2 2 4 8 12 14 13 12 10 9 8 8 9 10 10 10 10 10 10 10 10 10 9 9 9 9 9 10 10 10 10
12 13 12 11 10 9 10 10 10 9 10 11 12 13 14 16 17 19 21 23 23 22 20 19 18 18 18 16 14 13 11 10 11 11 11 11 10 10 9 8 7 5 3 2 1 1 2 3 4 4 5 7 8 9 10 13 15 15 16 14 13 10 9 9 9 9 10 10 10 10 10 10 10 11 10 8 8 8 8 7 7 7 8 8 8
14 14 15 15 14 14 15 15 14 13 13 13 13 13 14 15 16 17 18 19 20 20 19 18 17 16 17 16 15 14 11 9 9 10 10 9 9 9 8 7 6 4 2 1 2 3 3 5 6 8 11 13 16 18 19 19 17 16 14 12 11 10 10 10 10 10 10 10 10 9 9 10 10 9 8 7 8 8 8 7 7 8 9 9 9
15 15 16 16 17 17 18 18 17 17 16 15 15 15 14 14 15 15 15 16 17 17 17 16 15 15 15 15 14 13 11 9 8 8 7 7 6 6 6 6 5 4 2 1 3 3 5 8 12 15 17 19 19 20 19 17 15 14 12 11 11 11 11 10 10 9 9 9 9 9 8 8 7 7 7 7 8 9 8 8 9 10 10 11 11
16 15 15 15 15 16 17 17 17 17 16 14 14 14 13 13 13 13 13 14 14 13 14 14 13 13 14 13 12 11 10 8 7 6 5 4 4 4 5 5 5 4 3 4 7 9 11 14 17 19 20 20 19 18 16 15 13 13 12 11 11 11 10 9 9 9 8 8 7 7 6 6 6 6 6 7 8 8 8 9 10 10 12 13 14
14 14 13 13 13 13 13 13 13 14 13 13 13 12 11 10 10 10 11 11 10 10 11 12 12 11 11 11 10 9 8 7 5 3 2 3 3 3 4 5 5 5 4 7 12 15 17 19 20 21 20 19 18 16 14 13 13 12 11 10 10 10 9 9 9 8 7 6 6 6 5 5 5 5 5 6 7 7 8 9 10 11 13 14 14
13 12 11 11 10 9 9 9 9 10 10 11 11 11 11 9 8 8 9 8 8 8 8 9 9 8 8 8 7 7 6 5 3 2 2 3 3 3 4 4 4 4 4 9 15 18 19 20 20 20 19 17 16 14 13 12 11 10 9 9 9 9 9 8 8 6 5 5 5 5 4 4 4 3 4 5 6 7 8 9 10 12 14 14 13
10 10 8 8 7 6 6 7 8 9 10 10 10 11 12 11 10 9 9 8 7 6 6 7 7 6 6 5 5 5 5 3 1 1 3 4 4 3 3 2 3 4 5 8 14 16 17 18 18 16 15 14 13 12 11 9 9 9 8 8 8 7 6 6 5 4 3 3 4 3 3 3 3 3 4 5 6 7 9 11 12 13 15 13 11
8 7 6 6 5 5 5 6 7 8 10 11 11 11 12 13 12 11 9 9 8 7 7 6 6 5 4 3 4 4 2 0 2 3 4 4 4 4 3 3 2 3 4 7 11 14 15 15 15 14 13 12 11 11 10 9 8 8 7 6 6 5 4 4 3 2 1 2 3 3 3 3 3 4 4 5 7 8 10 12 13 14 13 12 10
5 5 5 5 6 6 6 6 6 7 8 9 9 9 10 11 10 10 9 8 7 7 6 7 7 6 5 4 3 2 1 1 2 3 3 3 2 2 2 2 2 3 4 5 8 10 11 12 13 12 11 11 11 10 10 8 8 7 6 5 4 4 3 3 2 1 2 2 3 3 3 3 3 4 5 6 8 9 11 12 14 13 12 11 11
3 2 2 3 4 4 4 4 5 6 7 7 7 7 8 8 8 9 9 9 8 7 7 7 7 7 7 6 5 4 5 5 6 6 6 6 5 3 2 3 3 4 4 5 6 7 8 9 9 9 10 10 10 10 9 8 7 6 5 4 4 4 3 3 2 2 2 3 3 3 3 3 4 5 6 8 9 10 10 11 12 12 11 11 12
2 1 0 1 2 3 3 3 4 5 5 5 6 6 6 6 7 7 7 8 10 10 10 9 9 8 8 7 6 7 8 9 9 9 9 8 7 6 4 4 4 5 5 6 7 7 8 8 8 8 9 10 10 9 8 8 7 6 5 4 4 4 3 3 2 2 2 2 2 3 3 3 4 6 7 8 10 10 9 9 10 11 11 12 13
3 2 1 1 2 2 2 2 3 4 5 5 5 5 5 6 6 6 6 7 10 12 12 11 11 9 8 7 7 8 10 10 9 8 9 9 8 5 3 4 5 6 7 7 7 8 8 8 8 9 9 9 9 8 8 7 6 5 4 4 3 3 3 3 2 2 2 2 2 3 3 5 6 7 8 8 9 10 9 9 11 12 13 13 13
4 3 3 2 2 2 3 3 4 4 5 5 6 6 5 5 6 6 7 8 10 11 11 11 11 10 9 7 7 8 9 8 6 5 7 8 7 5 3 3 5 7 9 9 9 9 10 10 9 9 9 9 8 7 6 5 5 4 3 2 2 2 2 2 2 2 1 2 2 3 4 6 7 8 9 8 8 10 11 12 13 15 15 14 13
2 2 3 3 3 4 4 4 5 5 5 5 6 6 6 6 6 8 8 9 9 10 10 11 11 10 9 9 8 8 8 7 5 3 3 5 5 3 2 3 5 7 9 10 9 10 11 11 10 9 8 7 6 5 4 3 2 1 1 0 1 1 1 2 2 1 1 1 2 4 5 7 8 9 10 9 9 10 13 15 16 15 14 13 12
3 3 4 4 4 4 5 5 6 6 6 6 6 6 6 6 6 7 8 9 10 10 10 11 12 12 11 11 10 10 10 9 7 4 1 2 2 2 2 4 6 7 8 9 9 9 9 9 8 6 6 5 4 3 2 1 1 0 1 1 2 2 2 2 2 1 0 2 3 5 6 8 8 9 11 10 10 11 15 17 16 14 13 12 11
5 5 5 6 5 5 5 6 7 7 8 8 7 7 7 7 7 7 7 8 9 10 10 11 12 13 14 14 14 13 13 12 10 7 4 2 1 2 4 5 7 8 8 8 8 7 7 6 5 4 3 3 2 1 1 0 0 1 1 2 2 2 3 2 2 1 1 3 4 6 7 8 9 10 12 12 11 13 17 17 15 14 13 12 12
6 6 6 7 6 6 6 7 7 8 8 9 9 9 8 9 9 9 9 9 10 10 11 10 11 11 13 16 16 15 14 14 13 10 6 4 4 5 7 8 8 8 8 8 7 6 5 5 4 3 2 2 1 1 1 1 1 1 1 2 2 2 3 3 2 1 2 4 5 6 7 9 10 11 14 14 14 16 17 16 15 15 14 12 12
9 8 8 7 7 7 7 7 8 8 9 10 11 10 10 11 11 12 12 12 12 12 12 11 11 11 12 15 17 17 16 15 14 12 8 7 7 8 9 9 9 8 7 6 6 5 4 4 3 2 1 1 1 1 2 2 2 2 2 2 2 2 2 2 1 2 3 4 5 6 7 9 10 12 14 14 14 14 15 15 14 14 13 13 13
10 10 9 8 8 8 8 8 9 10 11 12 12 12 11 11 10 11 12 13 13 13 12 12 12 12 12 14 17 19 18 17 15 13 10 9 10 11 11 10 9 8 7 6 5 4 3 2 1 0 1 2 2 3 3 3 3 3 3 3 2 2 2 1 1 3 4 5 5 6 7 9 10 12 13 13 13 13 13 13 13 13 13 12 13
9 9 9 9 9 9 9 10 10 11 11 12 13 13 13 12 11 10 11 12 12 13 13 12 12 13 13 14 18 20 20 19 16 14 12 12 13 13 12 12 10 9 8 6 5 3 2 1 1 2 2 3 4 4 4 4 3 3 2 2 2 1 1 2 3 5 6 5 5 5 7 8 9 11 13 13 12 12 12 12 12 12 12 12 12
9 9 9 10 10 11 12 12 12 12 13 14 15 15 15 15 14 13 12 12 12 13 13 13 13 13 13 15 19 22 22 20 17 15 14 14 15 14 13 12 11 9 8 6 5 3 2 2 2 3 3 4 4 4 3 3 2 2 2 2 1 1 2 4 6 6 5 4 4 5 6 7 9 11 11 11 10 11 11 11 12 12 12 12 12
9 9 10 10 11 11 12 13 14 14 15 16 16 17 17 17 16 16 16 15 14 14 15 15 15 14 14 17 20 22 23 21 18 16 16 16 16 16 14 13 11 9 7 5 4 2 2 2 3 4 4 3 3 2 2 2 2 2 3 3 2 2 3 4 4 4 3 4 5 6 5 6 9 11 10 9 10 11 11 11 12 12 13 13 12
9 10 11 11 11 11 12 12 13 14 14 15 15 16 17 18 18 17 17 17 16 16 17 17 17 17 17 19 21 23 23 21 20 18 18 18 18 16 15 13 11 9 7 4 3 2 3 3 4 4 3 2 2 1 2 2 2 2 2 3 3 3 2 2 3 4 5 6 7 6 5 6 9 11 10 10 11 12 13 13 12 12 12 14 14
8 9 9 10 11 11 12 13 13 14 14 14 14 15 16 17 17 17 17 17 18 18 19 19 19 19 20 21 22 23 23 22 21 20 20 19 18 16 14 12 10 8 5 3 1 2 3 3 3 2 2 2 2 1 2 1 1 1 1 3 3 3 2 4 6 6 6 6 5 5 6 8 10 11 11 12 12 13 14 16 15 14 14 15 17
9 8 9 9 10 11 12 13 14 15 15 15 15 15 15 16 17 18 18 19 20 20 21 21 21 22 23 23 24 24 23 22 21 21 21 20 18 15 13 11 9 6 4 1 1 2 2 2 2 1 2 3 2 2 2 2 1 1 2 3 4 5 6 7 7 6 6 5 6 6 8 10 11 11 12 13 14 14 16 18 19 17 16 17 19
11 11 11 12 12 13 13 14 15 16 16 16 16 17 17 18 19 20 20 21 21 21 22 22 23 24 25 25 25 24 23 22 22 21 20 18 16 14 12 10 7 5 3 1 1 2 2 2 1 1 2 2 3 2 3 3 3 3 3 4 5 6 7 7 6 6 7 8 8 9 10 10 11 11 12 13 15 17 18 20 20 18 17 17 19
13 14 14 14 15 15 15 15 16 16 16 16 17 18 18 19 20 21 21 21 21 22 23 25 25 25 25 26 25 24 24 23 23 22 20 18 16 14 12 9 7 5 4 2 2 2 2 2 3 3 3 3 3 3 3 4 4 4 4 5 5 6 6 7 8 8 9 10 10 11 11 12 13 14 16 18 19 21 22 23 23 20 17 17 18
Wind_Direction
210 213 216 219 223 226 229 229 229 230 233 235 237 238 242 245 244 243 240 237 235 235 238 243 242 239 238 237 242 253 256 253 255 263 269 272 269 262 261 264 264 266 270 272 272 274 280 283 279 279 287 287 283 288 301 311 310 304 305 303 295 300 308 282 242 267 298 313 317 325 332 333 341 349 348 350 356 4 11 12 7 7 7 8 10
209 213 216 219 222 226 228 228 228 228 232 236 237 238 240 241 239 237 237 237 238 240 243 245 244 241 239 238 241 249 253 251 251 256 262 268 267 260 257 262 264 264 266 269 272 278 280 286 291 290 288 287 284 285 295 304 308 308 308 302 286 283 292 287 261 259 282 300 310 316 322 325 331 340 343 346 350 352 354 355 355 358 359 359 3
210 213 216 220 223 225 227 228 227 228 231 234 236 238 238 236 234 235 238 242 244 245 246 247 245 242 238 238 241 241 242 245 249 252 256 262 264 259 255 258 262 263 263 264 270 279 282 282 288 289 286 286 282 278 283 291 300 308 314 309 293 286 289 287 272 261 273 293 305 310 315 319 323 332 338 340 343 343 342 342 342 345 347 349 353
210 213 217 221 224 225 227 229 229 228 230 234 237 238 238 235 235 238 242 245 247 246 246 246 246 244 240 239 239 237 234 237 245 251 254 257 258 256 253 254 259 262 264 266 270 275 278 278 277 276 278 283 281 276 277 282 289 296 302 303 298 295 294 287 277 272 274 285 297 305 311 315 320 329 334 334 334 335 334 333 333 334 337 341 347
211 214 217 220 222 225 227 229 231 231 232 236 239 240 239 237 237 240 242 245 247 247 246 247 248 246 244 242 238 236 236 237 242 250 255 256 255 254 254 252 255 260 265 270 271 270 271 274 274 272 274 279 280 280 281 283 286 287 287 290 294 297 299 291 282 279 278 281 291 301 308 313 319 326 332 333 331 329 328 326 328 332 335 337 345
214 214 215 218 220 223 226 228 230 231 234 239 242 242 240 241 241 242 243 245 247 247 247 248 248 248 248 245 238 235 237 238 243 250 254 254 252 253 254 254 256 261 266 270 271 270 270 274 276 277 278 281 283 282 283 285 286 284 283 285 287 290 293 293 288 283 281 282 287 295 303 310 316 323 330 335 333 330 329 327 329 337 341 340 345
219 219 217 217 219 221 224 227 229 230 233 238 242 243 243 244 245 246 248 250 249 248 249 247 246 247 247 243 238 234 234 239 245 249 252 252 252 253 256 258 260 263 267 269 269 269 271 272 274 277 280 282 282 284 285 285 285 284 287 291 291 287 285 286 288 283 279 279 280 285 296 305 312 320 328 332 331 332 338 337 335 340 345 344 346
216 224 224 221 220 223 225 227 230 231 233 237 239 241 242 244 246 249 253 253 251 251 252 251 249 249 248 243 239 235 236 242 247 249 251 253 255 256 256 257 259 260 263 268 269 269 269 270 272 276 282 280 276 280 281 278 281 287 295 301 299 290 281 276 275 272 267 267 272 280 290 299 309 319 325 329 332 336 343 343 338 339 343 344 345
207 217 227 228 226 225 227 228 230 232 235 237 238 239 239 240 243 249 254 254 253 253 253 253 252 251 249 245 241 237 239 246 249 250 253 255 258 258 255 255 257 256 259 267 272 270 269 272 276 278 281 275 264 268 277 281 287 291 295 301 301 293 284 274 266 263 260 263 272 282 287 294 309 320 324 330 334 335 338 339 338 339 341 341 346
205 209 220 229 232 229 228 228 229 231 234 237 239 239 238 238 241 247 252 253 253 253 252 252 253 251 247 244 241 238 238 244 249 252 254 255 256 255 250 251 257 259 261 264 267 271 272 276 281 278 273 263 254 263 278 283 287 291 297 305 307 302 290 276 269 268 269 272 278 283 285 293 310 321 321 325 329 331 336 339 339 341 342 342 349
207 211 215 221 229 232 230 228 228 230 233 236 238 238 237 238 240 244 249 251 251 250 249 252 252 248 246 245 244 240 239 244 248 249 248 248 249 249 245 248 255 259 260 262 267 272 273 278 284 277 265 257 256 263 270 272 277 289 301 307 308 307 294 278 273 274 274 276 279 283 289 300 312 317 315 319 324 329 335 339 341 343 348 349 346
211 217 218 217 224 233 234 231 229 229 231 233 236 238 237 237 239 242 246 249 250 249 249 250 248 246 245 245 244 242 242 246 248 246 244 245 249 251 246 243 253 258 258 260 267 272 270 275 281 273 260 257 257 255 254 261 275 288 296 301 301 299 291 281 276 275 275 276 279 286 293 301 311 317 317 318 319 321 326 334 338 342 348 347 339
214 219 220 216 219 228 235 235 232 231 231 232 234 236 235 235 237 241 245 248 249 250 250 248 245 244 244 243 242 242 242 244 246 246 247 249 252 256 251 241 251 263 268 268 268 268 265 269 273 266 257 254 252 246 247 260 275 283 289 291 289 286 281 277 276 276 279 281 285 292 294 298 310 315 308 307 309 314 321 328 333 337 338 337 343
215 218 219 216 214 217 226 237 239 235 231 231 233 233 233 234 236 239 242 244 244 245 245 244 241 239 239 240 241 241 240 243 245 248 251 252 254 258 259 251 246 258 269 272 268 264 263 265 264 257 251 249 247 245 250 262 271 276 279 278 277 274 269 268 269 272 278 281 285 284 266 276 284 278 287 296 303 312 320 324 326 327 328 331 352
219 220 220 219 216 215 220 231 242 241 231 227 226 224 223 226 231 237 238 238 239 240 238 238 236 233 233 236 238 239 240 243 247 251 254 257 258 260 266 267 259 253 256 260 259 257 256 254 249 244 242 243 245 248 255 262 265 266 268 268 266 263 263 266 266 266 269 268 254 231 230 254 269 276 295 306 311 323 325 318 316 319 328 349 79
216 218 221 223 224 222 217 215 228 238 231 221 217 215 215 218 225 238 241 236 233 233 232 230 228 228 230 232 233 234 238 242 247 252 256 260 263 266 268 273 275 270 263 260 256 251 247 241 236 235 236 239 244 249 254 259 260 259 259 257 252 252 264 279 283 279 274 257 235 221 214 256 316 321 334 333 336 345 331 309 325 345 5 41 73
208 215 220 221 222 222 215 208 215 227 229 223 217 216 218 221 223 231 238 234 226 224 223 221 220 222 224 224 226 229 234 241 245 250 256 258 261 266 269 272 278 273 264 258 249 238 231 228 226 227 230 237 245 252 256 260 262 259 253 241 228 220 201 169 281 282 249 179 150 136 118 91 69 52 32 15 10 5 351 354 13 20 32 43 53
217 222 223 219 215 214 214 213 215 220 224 224 220 215 214 217 219 220 222 222 217 211 209 207 207 208 206 205 208 214 222 231 238 242 249 254 256 260 266 267 255 241 236 223 212 208 207 210 216 221 228 236 241 248 254 260 260 257 249 227 207 188 164 153 144 133 129 124 118 110 100 85 68 54 42 34 29 22 25 39 37 32 43 44 34
220 223 219 211 207 207 210 213 214 219 227 228 223 214 208 208 210 209 207 208 206 197 195 193 188 183 183 183 185 191 203 216 232 244 249 256 261 261 258 247 227 216 206 203 207 209 206 205 209 216 222 226 231 242 256 259 255 251 236 211 191 171 160 157 149 141 132 119 109 100 87 73 58 49 44 39 36 32 34 42 37 30 48 55 49
217 219 214 207 205 208 210 213 218 225 231 231 223 215 214 209 203 201 202 203 199 188 184 183 175 166 165 168 166 168 183 195 217 250 256 258 260 256 239 221 217 212 204 204 208 207 207 211 215 219 217 209 203 206 256 268 245 213 201 191 173 155 147 143 137 133 125 109 97 86 74 64 53 49 48 46 45 41 39 42 43 43 62 72 68
212 210 207 202 201 206 211 215 219 223 228 231 228 229 230 222 212 209 207 200 190 181 174 171 161 148 142 142 139 130 126 130 124 99 91 240 260 249 217 177 186 204 197 197 207 217 226 236 244 248 238 208 169 135 111 109 114 114 130 145 144 144 141 132 123 117 108 96 87 78 68 60 53 51 53 54 56 55 53 56 59 62 69 73 72
201 199 198 196 196 198 201 202 206 212 221 226 222 218 217 211 206 205 200 189 179 173 167 160 149 135 125 123 121 115 107 104 102 98 97 97 93 92 97 97 98 129 164 177 202 223 234 247 257 265 265 247 179 114 103 97 88 89 102 123 138 146 141 128 118 108 96 86 77 68 60 55 53 56 60 64 65 64 65 66 65 67 69 67 66
182 183 185 186 187 187 186 185 184 189 200 208 204 200 199 195 190 186 181 173 165 158 153 149 141 131 122 116 114 112 108 105 102 99 96 94 90 86 87 91 96 107 123 137 161 170 174 244 257 270 280 237 175 141 77 30 39 102 146 145 143 143 135 121 109 95 82 72 64 60 57 56 58 61 65 71 72 71 71 70 66 64 64 61 60
153 155 159 160 161 164 167 167 164 162 170 183 185 180 173 168 163 159 156 151 145 139 137 136 132 126 120 117 114 113 111 107 103 98 94 92 91 88 86 88 93 97 98 95 94 107 110 122 137 127 117 141 160 174 179 153 143 141 137 131 130 130 121 105 90 78 69 64 64 67 68 66 68 71 73 78 83 81 75 70 64 58 53 49 44
130 133 134 129 126 129 129 125 127 135 155 169 167 156 149 146 143 140 139 139 137 134 133 133 129 124 123 123 120 114 110 109 109 107 103 98 94 87 79 74 73 74 86 111 132 168 158 145 149 154 148 148 152 148 137 133 132 129 124 122 120 112 97 85 75 68 70 75 79 82 83 80 80 81 82 85 86 80 70 61 51 41 33 27 23
113 114 114 113 114 116 114 114 118 123 132 140 140 137 139 140 137 135 135 135 135 135 135 134 131 128 128 126 121 117 117 122 124 116 108 100 90 79 70 63 57 48 47 150 192 200 182 167 164 158 147 143 143 137 131 128 127 122 116 110 100 86 74 69 67 71 81 90 91 90 90 90 89 85 80 74 69 62 51 34 20 16 13 8 7
106 107 107 108 111 113 112 114 115 116 117 121 121 122 127 131 131 131 134 134 134 135 137 138 137 135 131 127 124 125 132 140 134 117 104 93 79 66 55 48 47 47 58 157 178 176 165 158 153 149 144 141 138 133 128 125 120 111 100 88 77 68 62 60 64 76 89 94 93 92 94 96 91 77 64 59 57 51 37 22 17 18 15 9 7
102 102 104 105 107 109 112 115 116 114 114 116 116 117 120 124 126 127 132 137 140 143 148 151 150 146 140 136 137 141 144 142 130 113 99 79 59 43 33 32 40 54 89 137 143 143 148 149 147 145 143 139 133 127 121 115 107 98 89 79 70 65 63 64 70 80 87 88 88 91 94 92 83 69 57 51 48 41 27 18 19 19 12 9 9
102 100 100 101 104 108 112 114 114 114 114 114 114 113 116 121 126 131 138 147 152 155 161 165 163 159 154 150 150 152 151 143 129 110 84 52 33 21 20 29 46 59 94 140 144 142 145 146 144 143 141 136 129 124 118 110 104 97 87 78 71 68 68 68 71 75 77 76 81 87 93 92 83 69 53 44 41 35 22 15 15 11 7 7 8
105 101 97 95 96 101 111 117 118 116 115 116 114 111 112 114 119 127 138 151 162 168 175 180 182 178 170 162 157 156 154 148 135 103 39 12 3 2 8 30 58 70 104 146 151 147 146 145 143 142 141 135 129 124 119 114 109 102 93 85 77 72 70 66 64 66 64 65 78 89 94 96 87 67 49 42 36 28 18 13 11 7 6 6 4
114 110 108 104 97 91 101 119 128 125 122 122 119 117 115 112 108 110 116 124 135 149 164 177 188 195 192 178 165 154 147 144 127 359 342 341 340 338 352 26 71 86 112 147 153 151 147 145 143 142 140 135 131 129 126 121 116 110 107 100 89 80 74 66 60 58 57 66 86 99 96 93 82 60 47 39 29 19 12 8 7 6 7 7 360
129 133 135 132 129 121 113 117 125 128 126 125 126 127 125 119 113 110 112 117 123 131 138 146 154 161 164 165 163 158 156 245 328 330 325 323 315 310 327 5 62 100 117 141 148 146 145 145 144 144 143 141 140 138 135 129 124 121 118 113 105 95 82 69 64 70 81 85 98 105 97 88 72 56 43 29 18 12 8 7 7 5 4 1 353
124 137 144 145 147 148 143 135 135 137 135 134 136 138 137 136 131 125 124 126 128 133 139 141 142 144 141 140 144 141 100 24 19 12 359 347 324 304 325 14 69 111 123 139 145 142 143 146 147 150 153 151 149 148 144 139 137 136 131 123 116 104 88 82 92 116 113 106 109 108 98 84 64 48 35 23 15 9 6 5 5 2 357 350 343
89 103 146 167 164 157 155 155 156 153 149 150 151 149 149 154 154 149 145 144 142 142 144 142 141 140 136 128 115 95 88 89 85 77 69 62 57 58 66 67 84 108 123 146 156 155 156 157 157 161 163 159 157 157 154 148 145 144 138 128 119 110 111 122 127 122 116 116 113 104 90 70 45 31 22 14 11 8 4 2 360 355 348 340 332
28 27 22 206 194 178 166 167 173 174 171 170 171 167 165 168 169 167 165 162 157 154 151 146 142 139 133 123 108 101 102 102 95 86 78 72 68 70 81 91 103 114 125 142 155 159 163 165 164 164 165 162 160 158 154 149 145 141 133 126 124 127 138 147 143 134 131 121 107 93 70 44 29 21 15 10 9 8 3 357 353 347 339 332 327
347 333 292 239 221 217 211 202 198 196 191 184 182 180 178 178 180 180 178 174 167 162 159 156 153 149 144 134 120 117 119 114 101 88 77 69 63 63 81 107 116 119 121 128 139 147 150 152 154 154 153 152 150 148 147 143 139 135 132 133 139 148 156 158 155 149 144 121 102 80 49 32 24 16 12 8 6 4 359 350 346 343 336 330 325
354 338 316 303 284 267 259 240 219 213 207 198 191 191 191 194 199 200 195 189 184 179 176 172 169 166 164 156 142 138 140 137 123 95 71 59 51 48 71 114 121 119 117 119 124 130 131 131 135 138 139 138 135 133 133 131 129 130 135 140 153 167 170 170 168 163 147 105 78 51 30 24 17 11 9 5 359 357 354 347 341 337 332 328 323
335 316 298 294 290 280 270 253 235 227 224 218 214 217 220 222 224 224 222 215 208 203 199 195 193 194 192 182 171 168 169 168 162 136 69 48 40 43 87 133 137 129 123 122 123 124 123 123 125 125 124 123 120 115 113 111 108 114 138 199 226 226 215 203 195 178 126 61 45 30 20 15 10 5 3 359 352 348 347 343 337 332 329 326 323
292 284 277 275 274 269 262 254 244 236 232 231 231 230 230 231 231 231 229 226 225 225 223 220 219 221 216 204 195 192 191 190 192 195 185 35 34 62 139 158 156 145 135 129 127 125 123 122 121 118 114 112 106 98 92 82 73 285 281 275 257 243 230 221 219 223 33 25 21 16 9 4 360 357 356 354 347 342 340 337 334 329 324 321 319
284 280 278 276 274 269 262 256 252 248 243 241 240 238 237 237 235 233 230 228 226 229 231 231 234 234 228 218 211 207 203 201 201 207 218 228 194 168 175 176 168 156 146 139 135 132 128 125 123 120 116 110 100 90 86 38 325 270 267 263 248 240 235 232 238 266 348 9 10 7 2 357 354 353 352 350 342 337 334 332 329 326 322 319 317
287 286 282 280 278 271 263 258 256 255 252 249 250 252 254 254 249 243 238 233 229 229 232 236 240 239 230 222 218 215 211 207 205 207 215 218 201 187 185 183 175 164 156 151 147 143 139 136 135 133 126 115 97 65 25 345 319 285 265 258 252 248 241 235 245 303 354 5 4 1 359 357 354 352 351 346 339 333 331 329 326 324 322 319 319
287 287 286 287 286 280 274 269 264 257 251 248 249 253 258 261 257 250 244 239 235 233 234 235 237 236 229 221 215 213 212 210 207 208 214 214 203 194 187 183 178 170 163 159 154 148 146 142 138 129 108 80 32 356 348 334 316 304 293 281 270 259 247 246 290 345 358 1 0 358 357 355 353 349 346 341 334 330 328 326 325 324 322 321 321
296 293 287 283 282 285 286 283 275 266 257 254 255 258 262 262 256 247 241 238 236 234 233 233 233 233 229 218 209 208 209 208 206 209 213 208 200 195 190 185 180 175 171 168 161 156 154 143 123 83 348 337 328 324 324 319 311 308 299 285 276 272 265 282 333 349 349 348 349 353 355 354 352 350 346 341 333 329 327 326 325 324 322 321 321
313 306 295 286 284 286 286 284 279 276 273 271 271 271 270 266 258 248 242 240 238 234 232 231 231 230 226 214 204 204 206 206 205 208 208 202 196 194 191 187 184 182 180 179 177 177 186 217 278 292 301 303 299 300 302 299 293 291 283 273 268 265 286 330 334 331 328 330 338 349 353 353 353 352 349 344 339 335 333 330 330 328 325 324 324
324 317 307 300 295 291 287 284 282 281 282 283 282 279 276 271 265 259 254 251 246 239 234 232 231 229 224 213 205 204 204 205 205 206 203 198 195 194 191 188 186 185 185 186 189 196 218 259 281 292 297 294 290 290 289 274 257 251 250 244 231 253 320 325 322 316 312 320 337 341 343 350 356 355 351 346 345 345 343 340 339 336 331 327 324
314 315 314 310 305 300 296 293 290 289 289 286 282 277 273 270 269 267 263 258 252 244 238 236 233 229 222 213 207 204 203 203 204 203 199 195 193 191 189 187 186 187 189 191 197 215 258 291 299 303 302 293 283 275 246 211 204 216 227 228 246 305 315 312 311 315 323 327 327 325 328 348 357 356 352 347 347 346 345 344 344 343 339 332 325
303 305 306 306 306 304 300 296 294 293 292 289 284 278 272 267 264 263 260 255 250 245 241 238 234 229 221 213 208 205 203 203 203 200 195 193 192 190 189 188 187 187 189 192 208 253 296 309 309 303 289 258 229 189 167 166 170 190 224 246 265 286 304 315 325 331 325 313 307 308 319 337 346 349 349 348 346 343 341 339 337 336 338 336 330
307 303 300 299 301 299 296 295 294 291 290 289 286 282 277 269 262 257 255 253 249 243 239 235 231 226 219 214 210 208 205 203 201 197 193 192 190 189 188 187 186 185 188 195 231 297 324 328 318 292 230 200 190 174 168 174 178 212 251 257 254 261 301 319 312 305 298 290 293 308 317 321 328 333 333 332 333 335 336 334 330 325 327 329 327
308 305 300 296 296 294 293 294 294 292 291 289 285 280 276 271 265 263 263 261 253 243 237 234 229 223 216 212 210 207 204 202 199 195 192 189 187 186 186 184 182 181 184 196 280 322 336 339 325 256 195 199 214 219 220 234 270 299 293 276 266 270 287 297 294 285 280 282 294 306 309 311 317 324 326 326 325 324 324 325 323 320 320 321 322
307 305 302 300 298 296 296 296 296 294 294 291 286 282 277 271 267 266 266 263 255 244 236 232 227 221 216 212 209 206 203 200 197 193 190 188 185 184 184 182 179 179 185 199 270 302 313 313 270 210 208 224 235 238 245 257 265 269 281 295 291 281 281 288 293 294 294 294 296 300 301 302 304 307 311 314 314 312 312 313 313 312 312 315 318
301 301 300 299 298 296 296 297 297 296 296 295 292 288 284 279 275 272 267 261 254 245 236 229 224 219 214 212 211 208 203 197 194 191 190 189 187 185 184 183 182 185 193 212 248 263 256 234 215 214 231 246 248 251 259 261 253 254 274 293 292 282 281 289 295 296 294 292 291 291 291 291 292 294 299 303 306 307 308 308 305 303 303 306 311